IRIDIUM 33 DEB, 33862

Orbit data source: Space-Track

IRIDIUM 33 DEB, 33862 is space debris in LEO originally from a launch on Sun, 14 Sep 1997 UTC launched from the Tyuratam Missile And Space Complex (TTMTR). The debris from Iridium 33, an American commercial communications satellite, has been tracked extensively since its accidental collision with the defunct Russian satellite Cosmos 2251 in 2009. This event, occurring at high speed in low Earth orbit (LEO), generated thousands of pieces of space debris, significantly increasing the risk of further collisions. The Iridium 33 debris cloud has impacted space traffic management and orbital debris mitigation strategies, making it a subject of ongoing study in space situational awareness.

Loading next visibility...
Identifier
33862, 1997-051AF
Orbit
LEO
Country
Flag of USUS
Related business
Manufacturer
Unknown
Mission
Spacecraft
Bus & Motor
Unknown
Mass
Unknown
Launch date (UTC)
1997-09-14 (29 years ago)
Launch vehicle
Unknown
Launch site
Tyuratam Missile And Space Complex (TTMTR)
Object type
Payload
Rocket body
Debris
Shape & HBR
Unknown shape, 0.3 m
Radar Cross Section
Medium (>0.1 m² and <1 m²)

Expand to show TLE details & history
Last TLE update: 22 hours ago

TLE from 22 hours ago
0 IRIDIUM 33 DEB
1 33862U 97051AF  26266.99543426  .00002199  00000-0  32372-3 0  9999
2 33862  86.4040 271.1404 0049314 154.5398 235.5218 14.74079871930210
Epoch: 2026-09-23T23:53Z
TLE epoch observation values (Epoch: 2026-09-23T23:53:25.520Z)
Latitude
29.58235°
Longitude
-88.02105°
Altitude
671.665 km
Speed
7.513 km/s
True Right ascension
18h 12m 41s
True Declination
29° 25' 59"
Sunlit
Object was in daylight at epoch
Visualization orbit readout
Latitude
Unknown
Longitude
Unknown
Altitude
Unknown
Speed
Unknown
Apparent Right ascension
Unknown
Apparent Declination
Unknown
Sunlit
N/A
Visualization observer readout
Local Sidereal Time
15:03:55
Azimuth
Unknown
Elevation
Unknown
Doppler factor
Unknown
Orbital elements
Apogee altitude
679.616 km
Perigee altitude
610.348 km
Semi-major axis
7,023.119 km
Eccentricity
0.00493
Inclination
86.404°
RAAN
271.1404°
Arg. of periapsis
154.5398°
True anomaly
235.05759°
Mean anomaly
235.5218°
Eccentric anomaly
235.28953°
Mean motion
3.68764 °/min
Orbital period
97.62 mins
BSTAR
0.00032372

Documentation

Showing up to 5 results
|